weather.gov     
National Weather Service

Regional Weather Roundup
NWS Homepage
This page is being discontinued on March 12, 2014.
The same data is available at this site. Please update your bookmarks.
Thank you, and we apologize for the inconvenience.
Please send an email to SR-SRH.Webmaster@noaa.gov with any concerns.


Current Version
Previous Version:    01  02  03  04  05  06  07  08  09  10  11  12  13  14  15  16  17  18  19  20  21  22  23  24  25  26  27  28  29  30  
   31  32  33  34  35  36  37  38  39  40  41  42  43  44  45  46  47  48  49  50  51  52  53  
[Printable]
587
ASUS43 KGRB 241210
RWRGRB

NORTH-CENTRAL AND NORTHEAST WISCONSIN REGIONAL WEATHER ROUNDUP
NATIONAL WEATHER SERVICE GREEN BAY WI
600 AM CST MON NOV 24 2014

WIZ005-009-010>012-018-019-241300-
NORTH CENTRAL WISCONSIN

CITY           SKY/WX    TMP DP  RH WIND       PRES   REMARKS
IRONWOOD       CLOUDY    36  36 100 NW8       29.10S
MANITOWISH WTR LGT RAIN  34  34 100 NW9       29.08S
ARBOR VITAE    DRIZZLE   37  36  96 N10G16    29.07S
EAGLE RIVER    RAIN      36  36 100 N9        29.04S
LAND O LAKES   LGT RAIN  37  37 100 NW9G17    29.05S
RHINELANDER    LGT RAIN  36  35  96 NW8       29.05F
PHILLIPS       DRIZZLE   33  33  99 NW9       29.10S
ANTIGO         LGT RAIN  37  37 100 NW8       29.03S
TOMAHAWK       RAIN      35  34  97 NW8       29.08S
MERRILL        DRIZZLE   37  37 100 NW8       29.06S
$$

WIZ013-073-241300-
NORTHEAST WISCONSIN

CITY           SKY/WX    TMP DP  RH WIND       PRES   REMARKS
IRON MOUNTAIN  LGT RAIN  37  37 100 NW6       28.98F
MARINETTE      CLOUDY    39  39 100 NW3       28.98S
OCONTO         CLOUDY    39  39 100 W3        28.99F
$$

WIZ017-030-035>037-045-241300-
CENTRAL WISCONSIN

CITY           SKY/WX    TMP DP  RH WIND       PRES   REMARKS
MEDFORD        DRIZZLE   34  34 100 NW14      29.09R
WAUSAU         LGT RAIN  39  38  96 NW12      29.04R
MOSINEE        RAIN      39  39 100 NW16      29.06S
MARSHFIELD     LGT RAIN  37  35  92 NW13      29.09R
WISC RAPIDS    LGT RAIN  39  36  89 NW9       29.09R FOG
STEVENS POINT  RAIN      39  39 100 NW7       29.05S
WAUPACA        CLOUDY    45  43  95 W8        29.04R FOG
SHAWANO        CLOUDY    42  41  95 CALM      29.02F
CLINTONVILLE   CLOUDY    41  39  93 CALM      29.03R FOG
$$

WIZ038-039-048-051-241300-
FOX VALLEY

CITY           SKY/WX    TMP DP  RH WIND       PRES   REMARKS
NWS GREEN BAY  CLOUDY    40  39  97 W9        29.01S
APPLETON       FOG       41  41 100 NW8       29.03S VSB 1
OSHKOSH        FOG       42  41  96 W3        29.03S VSB 1/2
FOND DU LAC    CLOUDY    43  41  93 W5        29.04R FOG
$$

WIZ022-050-052-241300-
EAST CENTRAL WISCONSIN

CITY           SKY/WX    TMP DP  RH WIND       PRES   REMARKS
STURGEON BAY   CLOUDY    41  37  87 W7        28.99F VSB 3/4
MANITOWOC      LGT RAIN  42  42 100 W8        29.01S
SHEBOYGAN      CLOUDY    43  41  93 W7        29.01S
$$

LMZ563-521-522-541>543-241300-
LAKESHORE

STATION/POSITION TIME  TEMP    WIND        PRES    VSBY  WAVE
                       AIR SEA DIR/SP/G                  HT/PER
                 (UTC) (F)     (DEG/KT/KT) (MB)    (MI)  (FT/S)
SHEBOYGAN LKSHOR 1200   44 38  270/  3/  3  983.0R
KEWAUNEE LKSHORE 1200   41     290/  6/  8  981.4R
NORTHPORT PIER   1200   41     290/  7/ 10  981.7S
N MID LAKE BUOY  1200   42 42  300/  8/  8  980.5F         2/ 5
SISTER BAY LKSHO 1100          360/  3/  4   N/A
CHAMBERS ISLAND  1200   41     250/  2/  4  982.1S
MENOMINEE LKSHOR 1200   40     270/  5/  7  982.6S
$$




U.S. Dept. of Commerce
NOAA National Weather Service
1325 East West Highway
Silver Spring, MD 20910
E-mail: w-nws.webmaster@noaa.gov
Page last modified: May 16, 2007
NATIONAL WEATHER SERVICE: for Safety, for Work, for Fun - FOR LIFE